www.pogodaiklimat.ru

Погода и климат >> Архив погоды >> Россия >> Кемеровская область >> Тяжин


ПОГОДА в Тяжине

  • Прогноз погоды в Тяжине
  • Монитор погоды в Тяжине

АРХИВ ПОГОДЫ в Тяжине

Время (UTC), дата Ветер
(напр.,м/с)
 
Видим.   Явления Облачность Т
(С)
Тd
(С)
f
(%)
Тe
(С)
Тes
(С)
Комфортность P
(гПа)
Po
(гПа)
Тmin
(С)
Tmax
(С)
R
(мм)
R24
(мм)
S
(см)
15 11.08 Ю 1 10 км 6/3 600 м
[Cb cap Ci fib]
+12.2 +9.9 86 +12 +12 1015.9 989.3
18 11.08 штиль 0 10 км 4/3 600 м
[Sc diur, vesp Ci fib]
+9.8 +8.2 90 +9 +9 1016.1 989.3
21 11.08 Ю 1 4000 м дымка 3/0
[Ac trans]
+7.8 +6.7 93 +7 +7 1016.3 989.3
00 12.08 Ю 1 10 км 4/4 600 м
[Sc]
+8.4 +7.3 93 +8 +8 1015.7 988.8 +7.6
03 12.08 ЮЗ 1 10 км 9/3 600 м
[Sc Ac trans]
+14.3 +11.5 83 +15 +16 1015.7 989.3
06 12.08 З 2 20 км 8/6 600 м
[Cb cap Ac trans]
+18.5 +10.1 58 +19 +23 1015.3 989.3
09 12.08 С 2 10 км слаб. ливневой дождь 8/4 600 м
[Cb cap Ac trans Ci fib]
+18.0 +11.1 64 +19 +21 1014.0 988.0
12 12.08 С 2 20 км {ливн. осадки} 4/3 600 м
[Sc diur, vesp Ac lent]
+17.8 +9.9 60 +18 +19 1014.0 988.0 +20.2 0.9
15 12.08 З 1 20 км 4/1 600 м
[Sc diur, vesp Ac trans Ci fib]
+12.0 +10.1 88 +12 +12 1015.9 989.3
18 12.08 С 1 10 км 3/0
[Cc]
+8.7 +7.5 92 +8 +8 1016.3 989.3
21 12.08 штиль 0 2000 м дымка ясно +6.3 +5.3 93 +5 +5 1015.2 988.0
00 13.08 Ю 1 1000 м дымка 3/0
[Cc]
+5.3 +4.3 93 +4 +5 1014.6 987.4 +4.8
03 13.08 СВ 2 20 км 3/0
[Ci fib]
+14.3 +8.9 70 +14 +20 1015.7 989.3
06 13.08 С 2 20 км 8/6 600 м
[Cu hum Ac trans]
+18.3 +7.4 49 +19 +23 1012.7 986.7
09 13.08 С 1 20 км 6 баллов +20.1 +7.1 43 +22 +26 комфорт 1012.5 986.7
12 13.08 С 2 20 км 3/0
[Ci fib]
+19.1 +8.8 51 +20 +21 1011.3 985.5 +20.1
15 13.08 С 1 20 км 2 балла +12.9 +10.1 83 +13 +13 1013.2 986.7
18 13.08 СЗ 1 20 км ясно +9.1 +7.7 91 +8 +8 1013.5 986.7
21 13.08 С 1 2000 м дымка ясно +7.5 +6.4 93 +6 +6 1013.7 986.7
00 14.08 СВ 1 2000 м в посл. час туман ясно +8.0 +7.0 93 +7 +8 1012.6 985.7 +6.7
03 14.08 В 2 10 км 1 балл +16.1 +10.8 71 +16 +23 1012.9 986.7
06 14.08 В 3 20 км 4/3 600 м
[Cu hum Ci fib]
+19.1 +10.4 57 +20 +26 1013.9 988.0
09 14.08 В 3 20 км 4 балла +21.2 +9.7 48 +23 +26 комфорт 1012.4 986.7
12 14.08 В 3 20 км 5/0
[Ac trans Ci fib]
+19.2 +10.9 59 +20 +21 1011.8 986.0 +21.5
15 14.08 В 2 20 км 7 баллов +15.4 +10.8 74 +15 +15 1012.9 986.7
18 14.08 В 1 20 км 10/0
[Ac lent Ci]
+13.9 +9.5 75 +14 +14 1013.1 986.7
21 14.08 В 1 20 км 10 баллов +12.2 +8.9 80 +12 +12 1011.8 985.3
00 15.08 В 2 20 км 3/0
[Ac trans Ci fib]
+11.4 +9.0 85 +10 +11 1010.6 984.1 +10.9
03 15.08 В 2 20 км 4 балла +17.0 +10.8 67 +17 +22 1011.3 985.3
06 15.08 В 2 20 км 3/1 600 м
[Cu hum Ci fib]
+20.8 +12.5 59 +24 +33 комфорт 1011.0 985.3
09 15.08 В 1 20 км 10/3 600 м
[Cu hum Ac trans Cs]
+22.9 +13.1 54 +26 +26 жарко 1010.8 985.3
12 15.08 СВ 2 20 км 10/0
[Cs]
+21.3 +14.7 66 +24 +25 комфорт 1009.6 984.1 +23.2
15 15.08 СВ 1 10 км 10 баллов +17.0 +14.1 83 +18 +18 1011.3 985.3
18 15.08 С 1 10 км 10/0
[Cc]
+14.7 +12.6 87 +15 +15 1011.5 985.3
21 15.08 СВ 1 10 км 10 баллов +13.5 +11.7 89 +14 +14 1010.3 984.0
00 16.08 С 1 10 км 10/1 600 м
[Sc diur, vesp Ac trans Cc]
+13.4 +11.6 89 +14 +14 1009.0 982.8 +13.0
03 16.08 СВ 2 20 км 10 баллов +17.2 +12.9 76 +18 +18 1008.6 982.7
06 16.08 В 2 20 км 10/0
[Cc]
+22.5 +12.4 53 +25 +25 комфорт 1008.2 982.7
09 16.08 СВ 4 10 км 10 баллов +22.9 +12.5 52 +26 +26 жарко 1008.1 982.7
12 16.08 С 1 10 км 10/4 600 м
[Sc Cs]
+21.6 +14.1 62 +24 +25 комфорт 1008.2 982.7 +23.6
15 16.08 Ю 1 10 км 10 баллов +17.1 +14.4 84 +18 +18 1010.0 984.0
18 16.08 штиль 0 10 км 10 баллов +14.4 +12.9 91 +14 +14 1011.6 985.3
21 16.08 ЮВ 1 10 км 10 баллов +12.2 +10.9 92 +12 +12 1011.8 985.3
00 17.08 штиль 0 1000 м дымка 6/0
[Ac trans Cc]
+12.3 +11.3 94 +12 +12 1012.0 985.6 +10.9
03 17.08 штиль 0 10 км {туман} 8/8 270 м
[St]
+17.4 +13.9 80 +17 +19 1012.1 986.2
06 17.08 СВ 2 10 км 5 баллов +22.7 +14.0 58 +26 +32 жарко 1013.6 988.0
09 17.08 СВ 2 4000 м дым 4 балла +24.0 +12.0 47 +26 +30 жарко 1013.5 988.0
12 17.08 СВ 2 4000 м дым 1/1 600 м
[Sc diur, vesp]
+22.7 +13.3 55 +26 +26 жарко 1012.3 986.8 +24.5
15 17.08 штиль 0 4000 м дым ясно +16.0 +13.1 83 +16 +16 1014.2 988.0
18 17.08 штиль 0 4000 м дымка 2 балла +13.6 +12.2 91 +13 +13 1014.4 988.0
21 17.08 штиль 0 2000 м дымка 5 баллов +11.6 +10.3 92 +11 +11 1014.6 988.0
00 18.08 штиль 0 200 м туман 6/0
[Cc]
+10.3 +9.2 93 +10 +10 1014.3 987.6 +10.2
03 18.08 СВ 2 4000 м дымка 4 балла +17.6 +13.7 78 +18 +22 1015.4 989.3
06 18.08 С 2 4000 м дым 2 балла +23.1 +10.8 46 +25 +34 комфорт 1013.6 988.0
09 18.08 СВ 3 10 км 5 баллов +24.1 +9.3 39 +25 +28 комфорт 1013.5 988.0
12 18.08 С 2 10 км 3/3 600 м
[Cu med, cong]
+22.1 +9.4 44 +24 +24 комфорт 1012.9 987.3 +24.1

 

Местоположение метеостанции Тяжин (Кемеровская область, Россия): широта 56.12 долгота 88.52 высота над уровнем моря 223 м.

В архиве по умолчанию представлена погода в Тяжине за последнюю неделю. Архивные данные за месяц целиком и за предыдущие месяцы, начиная с января 2011 года, Вы можете получить, выбрав интересующий диапазон дат из раскрывающегося списка и нажав кнопку "Ввод!".


*Определитесь, кто Вы:
робот инопланетянин человек

Внимание! Время в таблицах - всемирное. Для получения местного времени необходимо прибавить поправку, которая равна 7 ч.

Смотрите также архив погоды в соседних городах и на ближайших метеорологических станциях:

Погода в Тисуле (Кемеровская область, Россия) (43 км)
Погода в Мариинске (Кемеровская область, Россия) (52 км)
Погода в Боготоле (Красноярский край, Россия) (67 км)
Погода в Тюхтете (Красноярский край, Россия) (67 км)
Погода в Шарыпово (Красноярский край, Россия) (78 км)
Погода в Назарово (Красноярский край, Россия) (112 км)
Погода в Центральном Руднике (Кемеровская область, Россия) (116 км)
Погода в Ужуре (Красноярский край, Россия) (122 км)
Погода в Ачинске (Красноярский край, Россия) (125 км)
Погода в Яе (Кемеровская область, Россия) (127 км)

Пояснения к столбцам:

Ветер - указаны скорость ветра в м/с - средняя за 10 мин, порывы в срок и между сроками (в фигурных скобках) и направление, откуда дует ветер: С - северный, СВ - северо-восточный, В - восточный, ЮВ - юго-восточный, Ю - южный, ЮЗ - юго-западный, З - западный, СЗ - северо-западный.
Видимость - горизонтальная дальность видимости в метрах или километрах. При видимости от 1 до 10 км при отсутствии осадков обычно наблюдается дымка, при ухудшении видимости до 1 км и менее - туман. В сухую погоду видимость может ухудшаться дымом, пылью или мглою.
Явления - указаны атмосферные явления, наблюдавшиеся в срок или в последний час перед сроком; фигурными скобками обозначены явления, наблюдавшиеся между сроками (за 1-3 часа до срока); квадратными скобками обозначены град или гололедные отложения с указанием их диаметра в мм.
Облачность - указаны через наклонную черту общая и нижняя облачность в баллах и высота нижней границы облаков в метрах; квадратными скобками обозначены формы облаков: Ci - перистые, Cs - перисто-слоистые, Cc - перисто-кучевые, Ac - высококучевые, As - высокослоистые, Sc - слоисто-кучевые, Ns - слоисто-дождевые, Cu - кучевые, Cb - кучево-дождевые. Подробнее классификацию облаков см. в Атласе облаков (PDF).
T - Температура воздуха - температура, измеренная на высоте 2 м над землей.
Td - Температура точки росы - температура, при понижении до которой содержащийся в воздухе водяной пар достигнет насыщения.
f - Относительная влажность воздуха - влажноcть воздуха, измеренная на высоте 2 м над землей.
Te - Эффективная температура - температура, которую ощущает одетый по сезону человек в тени. Характеристика душности погоды. При расчете учитывается влияние влажности воздуха и скорости ветра на теплоощущения человека.
Tes - Эффективная температура на солнце - температура, которую ощущает человек, с поправкой на солнечный нагрев. Характеристика знойности погоды. Зависит от высоты солнца над горизонтом, облачности и скорости ветра. Ночью, в пасмурную погоду, а также при ветре 12 м/с и более поправка равна нулю.
P - Атмосферное давление - приведенное к уровню моря атмосферное давление.
Po - Атмосферное давление - измеренное на уровне метеостанции атмосферное давление.
Tmin - Минимальная температура - минимум температуры воздуха на высоте 2 м над землей.
Tmax - Максимальная температура - максимум температуры воздуха на высоте 2 м над землей.
R - Количество осадков - Количество выпавших осадков за период времени, мм. При наведении курсора мыши на число - период времени, за который выпало указанное количество осадков.
R24 - Количество осадков - Количество выпавших осадков за 24 часа, мм.
S - Снежный покров - Высота снежного покрова, см. При наведении курсора мыши на число - состояние снежного покрова и степень покрытия местности в баллах.